Home   Weather   Réunion (French)   Saint-Denis   Past weeks
Flag for Réunion (French)

Past Weather in Saint-Denis, Réunion (French) — Yesterday and Last 2 Weeks

Currently: 64 °F. Overcast. (Weather station: Saint-Denis / Gillot, Réunion (French)). See more current weather

Past Weather in Saint-Denis — Graph

°F

Saint-Denis Temperature Yesterday

Maximum temperature yesterday: 75 °F (at 1:00 pm)
Minimum temperature yesterday: 66 °F (at 1:30 am)
Average temperature yesterday: 70 °F

High & Low Weather Summary for the Past Weeks

 TemperatureHumidityPressure
High81 °F (Jun 16, 11:00 am)88% (Jun 7, 5:00 am)30.24 "Hg (Jun 7, 5:00 am)
Low63 °F (Jun 20, 1:00 am)47% (Jun 8, 10:00 am)29.95 "Hg (Jun 15, 1:30 pm)
Average72 °F69%30.10 "Hg
* Reported Jun 7 5:00 am — Jun 22 5:00 am, Saint-Denis. Weather by CustomWeather, © 2021

Note: Actual official high and low records may vary slightly from our data, if they occured in-between our weather recording intervals... More about our weather records

Saint-Denis Weather History for the Previous 24 Hours

Scroll right to see more
 ConditionsComfort  
Time TempWeatherWind HumidityBarometerVisibility
5:00 am
Tue, Jun 22
64 °FPassing clouds.18 mph83%30.18 "HgN/A
4:30 am64 °FPassing clouds.12 mph83%30.18 "HgN/A
4:00 am66 °FPassing clouds.14 mph73%30.18 "HgN/A
3:30 am64 °FMild.10 mph68%30.18 "HgN/A
3:00 am64 °FPassing clouds.6 mph68%30.18 "HgN/A
2:30 am66 °FClear.14 mph64%30.18 "Hg10 mi
2:00 am66 °FPassing clouds.13 mph78%30.21 "HgN/A
1:30 am68 °FMostly cloudy.12 mph73%30.21 "HgN/A
1:00 am70 °FPassing clouds.20 mph60%30.21 "HgN/A
12:30 am68 °FPassing clouds.20 mph69%30.21 "HgN/A
12:00 am68 °FPassing clouds.15 mph69%30.21 "HgN/A
11:30 pm
Mon, Jun 21
68 °FPassing clouds.22 mph69%30.24 "HgN/A
11:00 pm70 °FPassing clouds.22 mph64%30.21 "HgN/A
10:30 pm68 °FClear.22 mph69%30.21 "Hg10 mi
10:00 pm70 °FClear.18 mph60%30.21 "Hg10 mi
9:30 pm70 °FClear.17 mph60%30.21 "Hg10 mi
9:00 pm68 °FClear.14 mph64%30.21 "Hg10 mi
8:30 pm70 °FPassing clouds.14 mph60%30.21 "HgN/A
8:00 pm70 °FPassing clouds.18 mph64%30.21 "HgN/A
7:30 pm70 °FPassing clouds.15 mph60%30.21 "HgN/A
7:00 pm70 °FPassing clouds.17 mph60%30.18 "HgN/A
6:30 pm70 °FOvercast.13 mph64%30.18 "HgN/A
6:00 pm70 °FPassing clouds.14 mph64%30.18 "HgN/A
5:30 pm70 °FOvercast.17 mph64%30.18 "HgN/A
5:00 pm70 °FMostly cloudy.20 mph64%30.18 "HgN/A
4:30 pm72 °FPartly sunny.21 mph61%30.18 "HgN/A
4:00 pm73 °FScattered clouds.26 mph57%30.15 "HgN/A
3:30 pm73 °FPartly sunny.24 mph61%30.15 "HgN/A
3:00 pm73 °FOvercast.23 mph61%30.15 "HgN/A
2:30 pm73 °FPartly sunny.26 mph57%30.15 "HgN/A
2:00 pm73 °FBroken clouds.24 mph61%30.18 "HgN/A
1:30 pm73 °FBroken clouds.24 mph57%30.18 "HgN/A
1:00 pm75 °FPartly sunny.24 mph57%30.18 "HgN/A
12:30 pm73 °FPartly sunny.24 mph57%30.21 "HgN/A
12:00 pm73 °FPartly sunny.23 mph53%30.21 "HgN/A
11:30 am73 °FSunny.24 mph61%30.21 "Hg10 mi
10:30 am73 °FSunny.25 mph53%30.24 "Hg10 mi
10:00 am72 °FSunny.24 mph65%30.24 "Hg10 mi
9:30 am72 °FSunny.26 mph61%30.24 "Hg10 mi
9:00 am72 °FSunny.21 mph61%30.24 "Hg10 mi
8:30 am70 °FSunny.23 mph60%30.24 "Hg10 mi
8:00 am70 °FSunny.15 mph57%30.21 "Hg10 mi
7:30 am68 °FSunny.15 mph60%30.21 "Hg10 mi
7:00 am68 °FSunny.8 mph56%30.21 "Hg10 mi
6:30 am66 °FPassing clouds.15 mph64%30.21 "HgN/A
6:00 am68 °FClear.14 mph60%30.21 "Hg10 mi
Weather by CustomWeather, © 2021

See weather overview